| time (UTC) | temp C | wind direction | speed KPH | gust KPH | rain 1hr cm | rain 24hr cm | rain mn cm | humidity % | barometer mb |
| 20260506215109 | 12 | 245 | 6.4 | 17.7 | 0.00 | 1.55 | 0.00 | 50 | 1012.0 |
| 20260506214605 | 12 | 284 | 9.7 | 17.7 | 0.00 | 1.55 | 0.00 | 51 | 1012.0 |
| 20260506214106 | 12 | 9 | 9.7 | 11.3 | 0.00 | 1.55 | 0.00 | 51 | 1011.7 |
| 20260506213606 | 12 | 244 | 6.4 | 16.1 | 0.00 | 1.55 | 0.00 | 52 | 1011.6 |
| 20260506213106 | 12 | 14 | 0.0 | 9.7 | 0.00 | 1.55 | 0.00 | 52 | 1011.6 |
| 20260506212609 | 12 | 285 | 0.0 | 14.5 | 0.00 | 1.55 | 0.00 | 52 | 1011.5 |
| 20260506212106 | 12 | 5 | 14.5 | 9.7 | 0.00 | 1.55 | 0.00 | 51 | 1011.5 |
| 20260506211606 | 12 | 331 | 3.2 | 19.3 | 0.00 | 1.55 | 0.00 | 51 | 1011.6 |
| 20260506211106 | 12 | 311 | 16.1 | 17.7 | 0.00 | 1.55 | 0.00 | 52 | 1011.5 |
| 20260506210606 | 12 | 318 | 4.8 | 6.4 | 0.00 | 1.55 | 0.00 | 52 | 1011.5 |
| 20260506210106 | 12 | 248 | 0.0 | 11.3 | 0.00 | 1.55 | 0.00 | 49 | 1011.2 |
| 20260506205611 | 12 | 305 | 8.0 | 16.1 | 0.00 | 1.55 | 0.00 | 49 | 1011.3 |
| 20260506205109 | 12 | 264 | 4.8 | 19.3 | 0.00 | 1.55 | 0.00 | 50 | 1011.3 |
| 20260506204606 | 13 | 291 | 3.2 | 25.7 | 0.00 | 1.55 | 0.00 | 50 | 1011.3 |
| 20260506204106 | 13 | 267 | 3.2 | 19.3 | 0.00 | 1.55 | 0.00 | 50 | 1011.2 |
| 20260506203609 | 13 | 336 | 1.6 | 17.7 | 0.00 | 1.55 | 0.00 | 49 | 1011.2 |
| 20260506203106 | 13 | 315 | 0.0 | 17.7 | 0.00 | 1.55 | 0.00 | 50 | 1011.1 |
| 20260506202607 | 13 | 274 | 9.7 | 17.7 | 0.00 | 1.55 | 0.00 | 48 | 1010.9 |
| 20260506202109 | 13 | 246 | 4.8 | 16.1 | 0.00 | 1.55 | 0.00 | 50 | 1010.9 |
| 20260506201606 | 13 | 325 | 3.2 | 16.1 | 0.00 | 1.55 | 0.00 | 49 | 1010.9 |
| 20260506201106 | 13 | 254 | 0.0 | 17.7 | 0.00 | 1.55 | 0.00 | 48 | 1011.0 |
| 20260506200606 | 14 | 329 | 8.0 | 17.7 | 0.00 | 1.55 | 0.00 | 48 | 1010.9 |
| 20260506200108 | 13 | 245 | 0.0 | 16.1 | 0.00 | 1.55 | 0.00 | 51 | 1010.8 |
| 20260506195605 | 13 | 314 | 14.5 | 17.7 | 0.00 | 1.55 | 0.00 | 50 | 1010.8 |
| 20260506195106 | 13 | 15 | 9.7 | 19.3 | 0.00 | 1.55 | 0.00 | 50 | 1010.8 |
| 20260506194606 | 13 | 347 | 8.0 | 19.3 | 0.00 | 1.55 | 0.00 | 50 | 1010.8 |
| 20260506194105 | 14 | 340 | 6.4 | 16.1 | 0.00 | 1.55 | 0.00 | 47 | 1010.7 |
| 20260506193606 | 14 | 281 | 4.8 | 16.1 | 0.00 | 1.55 | 0.00 | 49 | 1010.7 |
| 20260506193106 | 14 | 323 | 6.4 | 17.7 | 0.00 | 1.55 | 0.00 | 47 | 1010.5 |
| 20260506192609 | 13 | 276 | 1.6 | 17.7 | 0.00 | 1.55 | 0.00 | 48 | 1010.5 |
| 20260506192106 | 13 | 302 | 1.6 | 25.7 | 0.00 | 1.55 | 0.00 | 47 | 1010.6 |
| 20260506191605 | 14 | 16 | 16.1 | 14.5 | 0.00 | 1.55 | 0.00 | 46 | 1010.7 |
| 20260506191105 | 14 | 290 | 3.2 | 12.9 | 0.00 | 1.55 | 0.00 | 48 | 1010.8 |
| 20260506190606 | 14 | 33 | 6.4 | 19.3 | 0.00 | 1.55 | 0.00 | 47 | 1010.7 |
| 20260506190105 | 14 | 248 | 14.5 | 19.3 | 0.00 | 1.55 | 0.00 | 47 | 1010.4 |
| 20260506185607 | 13 | 337 | 0.0 | 20.9 | 0.00 | 1.55 | 0.00 | 48 | 1010.5 |
| 20260506185106 | 14 | 214 | 12.9 | 16.1 | 0.00 | 1.55 | 0.00 | 47 | 1010.7 |
| 20260506184609 | 13 | 277 | 0.0 | 22.5 | 0.00 | 1.55 | 0.00 | 47 | 1010.7 |
| 20260506184108 | 13 | 273 | 1.6 | 22.5 | 0.00 | 1.55 | 0.00 | 48 | 1010.7 |
| 20260506183606 | 13 | 290 | 6.4 | 16.1 | 0.00 | 1.55 | 0.00 | 48 | 1010.8 |
| 20260506183110 | 13 | 335 | 6.4 | 16.1 | 0.00 | 1.55 | 0.00 | 47 | 1010.9 |
| 20260506182606 | 13 | 285 | 6.4 | 17.7 | 0.00 | 1.55 | 0.00 | 49 | 1010.7 |
| 20260506182105 | 13 | 253 | 17.7 | 20.9 | 0.00 | 1.55 | 0.00 | 52 | 1010.8 |
| 20260506181606 | 13 | 327 | 6.4 | 17.7 | 0.00 | 1.55 | 0.00 | 51 | 1010.8 |
| 20260506181106 | 13 | 294 | 6.4 | 17.7 | 0.00 | 1.55 | 0.00 | 52 | 1010.8 |
| 20260506180608 | 13 | 11 | 8.0 | 17.7 | 0.00 | 1.55 | 0.00 | 52 | 1010.8 |
| 20260506180106 | 12 | 257 | 8.0 | 20.9 | 0.00 | 1.55 | 0.00 | 51 | 1010.8 |
| 20260506175606 | 13 | 322 | 3.2 | 16.1 | 0.00 | 1.55 | 0.00 | 50 | 1010.8 |
| 20260506175106 | 13 | 17 | 3.2 | 16.1 | 0.00 | 1.55 | 0.00 | 49 | 1010.9 |
| 20260506174606 | 13 | 306 | 6.4 | 17.7 | 0.00 | 1.55 | 0.00 | 48 | 1010.9 |
| 20260506174106 | 13 | 248 | 11.3 | 14.5 | 0.00 | 1.55 | 0.00 | 50 | 1010.8 |
| 20260506173610 | 13 | 275 | 4.8 | 17.7 | 0.00 | 1.55 | 0.00 | 49 | 1010.7 |
| 20260506173106 | 13 | 348 | 8.0 | 12.9 | 0.00 | 1.55 | 0.00 | 51 | 1010.7 |
| 20260506172606 | 13 | 313 | 1.6 | 19.3 | 0.00 | 1.55 | 0.00 | 52 | 1010.9 |
| 20260506172108 | 12 | 243 | 1.6 | 20.9 | 0.00 | 1.55 | 0.00 | 51 | 1010.9 |
| 20260506171609 | 12 | 355 | 9.7 | 20.9 | 0.00 | 1.55 | 0.00 | 54 | 1010.8 |
| 20260506171109 | 12 | 304 | 6.4 | 19.3 | 0.00 | 1.55 | 0.00 | 51 | 1010.7 |
| 20260506170605 | 12 | 30 | 14.5 | 14.5 | 0.00 | 1.55 | 0.00 | 56 | 1010.5 |
| 20260506170105 | 12 | 28 | 8.0 | 19.3 | 0.00 | 1.55 | 0.00 | 53 | 1010.3 |
| 20260506165606 | 12 | 22 | 0.0 | 19.3 | 0.00 | 1.55 | 0.00 | 56 | 1010.6 |
| 20260506165106 | 12 | 30 | 11.3 | 19.3 | 0.00 | 1.55 | 0.00 | 57 | 1010.7 |
| 20260506164605 | 12 | 17 | 9.7 | 17.7 | 0.00 | 1.55 | 0.00 | 57 | 1010.9 |
| 20260506164106 | 12 | 236 | 12.9 | 12.9 | 0.00 | 1.55 | 0.00 | 57 | 1010.7 |
| 20260506163606 | 12 | 261 | 9.7 | 11.3 | 0.00 | 1.55 | 0.00 | 58 | 1010.7 |
| 20260506163106 | 12 | 290 | 4.8 | 11.3 | 0.00 | 1.55 | 0.00 | 60 | 1010.5 |
| 20260506162605 | 12 | 239 | 0.0 | 14.5 | 0.00 | 1.55 | 0.00 | 61 | 1010.5 |
| 20260506162110 | 12 | 319 | 0.0 | 14.5 | 0.00 | 1.55 | 0.00 | 61 | 1010.6 |
| 20260506161606 | 12 | 292 | 1.6 | 14.5 | 0.00 | 1.55 | 0.00 | 62 | 1010.5 |
| 20260506161106 | 11 | 290 | 6.4 | 14.5 | 0.00 | 1.55 | 0.00 | 62 | 1010.6 |
| 20260506160605 | 11 | 20 | 6.4 | 16.1 | 0.00 | 1.55 | 0.00 | 61 | 1010.5 |
| 20260506160106 | 11 | 284 | 0.0 | 14.5 | 0.00 | 1.55 | 0.00 | 64 | 1010.4 |
| 20260506155606 | 11 | 5 | 8.0 | 19.3 | 0.00 | 1.55 | 0.00 | 64 | 1010.4 |
| 20260506155113 | 11 | 215 | 3.2 | 16.1 | 0.00 | 1.55 | 0.00 | 65 | 1010.3 |
| 20260506154606 | 11 | 317 | 4.8 | 11.3 | 0.00 | 1.55 | 0.00 | 67 | 1010.3 |
| 20260506154106 | 11 | 294 | 6.4 | 14.5 | 0.00 | 1.55 | 0.00 | 68 | 1010.2 |
| 20260506153607 | 11 | 355 | 16.1 | 17.7 | 0.00 | 1.55 | 0.00 | 69 | 1010.1 |
| 20260506153105 | 11 | 305 | 1.6 | 16.1 | 0.00 | 1.55 | 0.00 | 69 | 1010.2 |
| 20260506152606 | 10 | 300 | 11.3 | 11.3 | 0.03 | 1.55 | 0.00 | 70 | 1010.2 |
| 20260506152106 | 10 | 262 | 4.8 | 16.1 | 0.03 | 1.55 | 0.00 | 70 | 1010.2 |
| 20260506151606 | 10 | 254 | 4.8 | 19.3 | 0.03 | 1.55 | 0.00 | 70 | 1010.1 |
| 20260506151106 | 10 | 309 | 9.7 | 11.3 | 0.03 | 1.55 | 0.00 | 73 | 1010.0 |
| 20260506150605 | 10 | 306 | 6.4 | 14.5 | 0.03 | 1.55 | 0.00 | 72 | 1009.9 |
| 20260506150106 | 10 | 263 | 3.2 | 12.9 | 0.03 | 1.55 | 0.00 | 75 | 1010.0 |
| 20260506145606 | 10 | 315 | 0.0 | 14.5 | 0.03 | 1.55 | 0.00 | 76 | 1010.2 |
| 20260506145106 | 10 | 250 | 0.0 | 14.5 | 0.03 | 1.55 | 0.00 | 78 | 1010.0 |
| 20260506144610 | 10 | 305 | 4.8 | 11.3 | 0.03 | 1.55 | 0.00 | 81 | 1009.9 |
| 20260506144106 | 9 | 286 | 0.0 | 11.3 | 0.03 | 1.55 | 0.00 | 81 | 1009.8 |
| 20260506143606 | 10 | 299 | 1.6 | 16.1 | 0.03 | 1.55 | 0.00 | 83 | 1009.6 |
| 20260506143106 | 9 | 40 | 0.0 | 9.7 | 0.03 | 1.55 | 0.00 | 84 | 1009.6 |
| 20260506142609 | 9 | 265 | 4.8 | 8.0 | 0.00 | 1.52 | 0.00 | 83 | 1009.5 |
| 20260506142106 | 8 | 11 | 0.0 | 11.3 | 0.00 | 1.52 | 0.00 | 84 | 1009.5 |
| 20260506141605 | 8 | 346 | 8.0 | 12.9 | 0.00 | 1.52 | 0.00 | 84 | 1009.5 |
| 20260506141106 | 8 | 320 | 4.8 | 9.7 | 0.00 | 1.52 | 0.00 | 86 | 1009.5 |
| 20260506140605 | 8 | 325 | 4.8 | 16.1 | 0.00 | 1.52 | 0.00 | 86 | 1009.6 |
| 20260506140106 | 8 | 284 | 4.8 | 11.3 | 0.00 | 1.52 | 0.00 | 88 | 1009.4 |
| 20260506135609 | 8 | 323 | 6.4 | 17.7 | 0.00 | 1.52 | 0.00 | 90 | 1009.2 |
| 20260506135106 | 8 | 315 | 6.4 | 19.3 | 0.00 | 1.52 | 0.00 | 91 | 1009.1 |
| 20260506134609 | 8 | 294 | 3.2 | 17.7 | 0.00 | 1.52 | 0.00 | 92 | 1009.3 |
| 20260506134108 | 8 | 263 | 3.2 | 19.3 | 0.00 | 1.52 | 0.00 | 93 | 1009.0 |
| 20260506133606 | 8 | 290 | 8.0 | 11.3 | 0.00 | 1.52 | 0.00 | 95 | 1008.9 |
| 20260506133109 | 8 | 5 | 1.6 | 11.3 | 0.00 | 1.52 | 0.00 | 96 | 1008.9 |
| 20260506132605 | 8 | 351 | 0.0 | 8.0 | 0.00 | 1.52 | 0.00 | 96 | 1008.9 |
| 20260506132106 | 8 | 259 | 0.0 | 6.4 | 0.00 | 1.52 | 0.00 | 97 | 1009.1 |
| 20260506131606 | 8 | 279 | 3.2 | 9.7 | 0.00 | 1.52 | 0.00 | 99 | 1009.0 |
| 20260506131105 | 8 | 325 | 0.0 | 1.6 | 0.00 | 1.52 | 0.00 | 99 | 1008.9 |
| 20260506130606 | 7 | 326 | 0.0 | 9.7 | 0.00 | 1.52 | 0.00 | 99 | 1008.9 |
| 20260506130110 | 7 | 306 | 6.4 | 8.0 | 0.00 | 1.52 | 0.00 | 99 | 1009.1 |
| 20260506125606 | 7 | 355 | 1.6 | 12.9 | 0.00 | 1.52 | 0.00 | 100 | 1009.3 |
| 20260506125109 | 7 | 294 | 0.0 | 9.7 | 0.00 | 1.52 | 0.00 | 100 | 1009.0 |
| 20260506124606 | 7 | 331 | 1.6 | 4.8 | 0.00 | 1.52 | 0.00 | 100 | 1008.4 |
| 20260506124106 | 7 | 335 | 0.0 | 8.0 | 0.00 | 1.52 | 0.00 | 100 | 1008.1 |
| 20260506123606 | 7 | 341 | 3.2 | 11.3 | 0.00 | 1.52 | 0.00 | 100 | 1008.0 |
| 20260506123109 | 7 | 329 | 1.6 | 9.7 | 0.00 | 1.52 | 0.00 | 100 | 1008.3 |
| 20260506122606 | 7 | 341 | 0.0 | 6.4 | 0.00 | 1.52 | 0.00 | 100 | 1008.3 |
| 20260506122106 | 7 | 333 | 0.0 | 6.4 | 0.00 | 1.52 | 0.00 | 100 | 1008.3 |
| 20260506121605 | 7 | 331 | 0.0 | 9.7 | 0.00 | 1.52 | 0.00 | 100 | 1008.2 |
| 20260506121105 | 7 | 298 | 3.2 | 9.7 | 0.00 | 1.52 | 0.00 | 100 | 1008.4 |
| 20260506120606 | 7 | 355 | 0.0 | 9.7 | 0.00 | 1.52 | 0.00 | 100 | 1008.0 |
| 20260506120106 | 7 | 355 | 6.4 | 17.7 | 0.00 | 1.52 | 0.00 | 100 | 1008.0 |
| 20260506115606 | 7 | 340 | 3.2 | 8.0 | 0.00 | 1.52 | 0.00 | 100 | 1008.3 |
| 20260506115106 | 7 | 304 | 0.0 | 8.0 | 0.00 | 1.52 | 0.00 | 100 | 1008.5 |
| 20260506114605 | 7 | 26 | 0.0 | 6.4 | 0.03 | 1.52 | 0.00 | 100 | 1008.1 |
| 20260506114106 | 7 | 28 | 0.0 | 8.0 | 0.03 | 1.52 | 0.00 | 100 | 1007.9 |
| 20260506113606 | 7 | 339 | 0.0 | 11.3 | 0.03 | 1.52 | 0.00 | 100 | 1007.9 |
| 20260506113106 | 7 | 5 | 4.8 | 14.5 | 0.03 | 1.52 | 0.00 | 100 | 1007.7 |
| 20260506112606 | 7 | 5 | 1.6 | 20.9 | 0.03 | 1.52 | 0.00 | 100 | 1007.6 |
| 20260506112108 | 7 | 302 | 3.2 | 11.3 | 0.03 | 1.52 | 0.00 | 100 | 1007.2 |
| 20260506111606 | 7 | 28 | 1.6 | 19.3 | 0.03 | 1.52 | 0.00 | 100 | 1007.2 |
| 20260506111106 | 7 | 355 | 9.7 | 19.3 | 0.03 | 1.52 | 0.00 | 100 | 1006.8 |
| 20260506110605 | 7 | 14 | 14.5 | 17.7 | 0.03 | 1.52 | 0.00 | 100 | 1007.1 |
| 20260506110106 | 7 | 45 | 6.4 | 11.3 | 0.03 | 1.52 | 0.00 | 100 | 1007.4 |
| 20260506105609 | 7 | 51 | 0.0 | 9.7 | 0.03 | 1.52 | 0.00 | 100 | 1007.6 |
| 20260506105106 | 7 | 355 | 6.4 | 11.3 | 0.03 | 1.52 | 0.00 | 100 | 1007.7 |
| 20260506104606 | 7 | 332 | 0.0 | 16.1 | 0.00 | 1.50 | 0.00 | 100 | 1007.6 |
| 20260506104109 | 7 | 13 | 0.0 | 16.1 | 0.00 | 1.50 | 0.00 | 100 | 1007.3 |
| 20260506103606 | 7 | 342 | 4.8 | 6.4 | 0.00 | 1.50 | 0.00 | 100 | 1007.1 |
| 20260506103106 | 7 | 348 | 0.0 | 14.5 | 0.00 | 1.50 | 0.00 | 100 | 1006.9 |
| 20260506102609 | 7 | 350 | 8.0 | 9.7 | 0.00 | 1.50 | 0.00 | 100 | 1006.8 |
| 20260506102106 | 7 | 28 | 11.3 | 14.5 | 0.00 | 1.50 | 0.00 | 100 | 1006.7 |
| 20260506101606 | 7 | 333 | 3.2 | 20.9 | 0.00 | 1.50 | 0.00 | 100 | 1006.3 |
| 20260506101109 | 7 | 348 | 8.0 | 17.7 | 0.00 | 1.50 | 0.00 | 100 | 1006.1 |
| 20260506100606 | 7 | 9 | 4.8 | 11.3 | 0.03 | 1.50 | 0.00 | 100 | 1005.8 |
| 20260506100110 | 7 | 340 | 1.6 | 9.7 | 0.05 | 1.50 | 0.00 | 100 | 1005.6 |
| 20260506095605 | 7 | 9 | 0.0 | 19.3 | 0.05 | 1.50 | 0.00 | 100 | 1005.8 |
| 20260506095109 | 7 | 355 | 14.5 | 19.3 | 0.05 | 1.50 | 0.00 | 100 | 1005.8 |
| 20260506094606 | 7 | 28 | 14.5 | 25.7 | 0.05 | 1.50 | 0.00 | 100 | 1006.1 |
| 20260506094106 | 7 | 13 | 14.5 | 22.5 | 0.08 | 1.50 | 0.00 | 100 | 1006.0 |
| 20260506093606 | 7 | 26 | 14.5 | 27.4 | 0.10 | 1.50 | 0.00 | 100 | 1005.9 |
| 20260506093108 | 7 | 350 | 16.1 | 22.5 | 0.10 | 1.50 | 0.00 | 100 | 1006.2 |
| 20260506092606 | 7 | 0 | 11.3 | 30.6 | 0.10 | 1.50 | 0.00 | 100 | 1006.2 |
| 20260506092106 | 7 | 5 | 14.5 | 22.5 | 0.13 | 1.50 | 0.00 | 100 | 1005.9 |
| 20260506091606 | 7 | 330 | 17.7 | 27.4 | 0.15 | 1.50 | 0.00 | 100 | 1005.6 |
| 20260506091109 | 7 | 9 | 24.1 | 32.2 | 0.15 | 1.50 | 0.00 | 100 | 1005.7 |
| 20260506090606 | 8 | 22 | 19.3 | 24.1 | 0.13 | 1.47 | 0.00 | 100 | 1005.7 |
| 20260506090109 | 8 | 27 | 8.0 | 17.7 | 0.13 | 1.45 | 0.00 | 100 | 1006.1 |
| 20260506085609 | 8 | 339 | 6.4 | 17.7 | 0.13 | 1.45 | 0.00 | 100 | 1006.3 |
| 20260506085107 | 8 | 323 | 1.6 | 19.3 | 0.13 | 1.45 | 0.00 | 100 | 1006.0 |
| 20260506084605 | 8 | 355 | 6.4 | 20.9 | 0.13 | 1.45 | 0.00 | 100 | 1005.9 |
| 20260506084109 | 8 | 22 | 8.0 | 25.7 | 0.10 | 1.42 | 0.00 | 100 | 1005.7 |
| 20260506083609 | 8 | 5 | 6.4 | 20.9 | 0.10 | 1.40 | 0.00 | 100 | 1005.7 |
| 20260506083106 | 8 | 348 | 9.7 | 16.1 | 0.10 | 1.40 | 0.00 | 100 | 1005.7 |
| 20260506082605 | 8 | 351 | 11.3 | 20.9 | 0.08 | 1.37 | 0.00 | 100 | 1005.7 |
| 20260506082105 | 9 | 0 | 6.4 | 14.5 | 0.08 | 1.35 | 0.00 | 100 | 1005.7 |
| 20260506081605 | 9 | 337 | 4.8 | 14.5 | 0.05 | 1.32 | 0.00 | 100 | 1005.7 |
| 20260506081106 | 9 | 5 | 8.0 | 16.1 | 0.08 | 1.32 | 0.00 | 100 | 1005.8 |
| 20260506080608 | 9 | 31 | 9.7 | 19.3 | 0.10 | 1.32 | 0.00 | 100 | 1005.7 |
| 20260506080106 | 9 | 0 | 9.7 | 19.3 | 0.10 | 1.30 | 0.00 | 100 | 1005.4 |
| 20260506073105 | 9 | 315 | 4.8 | 19.3 | 0.18 | 1.30 | 0.00 | 100 | 1005.2 |
| 20260506072606 | 10 | 5 | 9.7 | 19.3 | 0.18 | 1.30 | 0.00 | 100 | 1005.2 |
| 20260506072108 | 10 | 333 | 9.7 | 22.5 | 0.15 | 1.27 | 0.00 | 100 | 1005.1 |
| 20260506071608 | 10 | 13 | 9.7 | 20.9 | 0.18 | 1.27 | 0.00 | 100 | 1005.1 |
| 20260506071109 | 10 | 355 | 17.7 | 19.3 | 0.18 | 1.24 | 0.00 | 100 | 1005.2 |
| 20260506070606 | 10 | 11 | 11.3 | 16.1 | 0.15 | 1.22 | 0.00 | 100 | 1005.3 |
| 20260506070106 | 10 | 309 | 4.8 | 14.5 | 0.13 | 1.19 | 0.00 | 100 | 1005.3 |
| 20260506062106 | 11 | 355 | 0.0 | 6.4 | 0.23 | 1.09 | 0.00 | 100 | 1005.2 |
| 20260506061609 | 11 | 355 | 0.0 | 4.8 | 0.20 | 1.07 | 0.00 | 100 | 1005.4 |
| 20260506061113 | 11 | 355 | 3.2 | 4.8 | 0.18 | 1.07 | 0.00 | 100 | 1005.4 |
| 20260506060609 | 11 | 355 | 4.8 | 4.8 | 0.18 | 1.07 | 0.00 | 100 | 1005.4 |
| 20260506060109 | 11 | 355 | 0.0 | 6.4 | 0.18 | 1.07 | 0.00 | 100 | 1005.3 |
| 20260506051106 | 12 | 349 | 8.0 | 8.0 | 0.03 | 0.89 | 0.00 | 100 | 1005.9 |
| 20260506050606 | 13 | 222 | 4.8 | 4.8 | 0.03 | 0.89 | 0.00 | 100 | 1005.9 |
| 20260506050106 | 13 | 208 | 0.0 | 1.6 | 0.03 | 0.89 | 0.00 | 100 | 1005.9 |
| 20260506045105 | 13 | 208 | 0.0 | 4.8 | 0.05 | 0.89 | 0.00 | 100 | 1005.8 |
| 20260506044608 | 13 | 208 | 4.8 | 9.7 | 0.08 | 0.89 | 0.00 | 100 | 1005.9 |
| 20260506044106 | 13 | 222 | 0.0 | 4.8 | 0.10 | 0.89 | 0.00 | 100 | 1005.9 |
| 20260506043609 | 13 | 223 | 0.0 | 6.4 | 0.10 | 0.89 | 0.00 | 100 | 1006.0 |
| 20260506043106 | 13 | 223 | 0.0 | 6.4 | 0.15 | 0.89 | 0.00 | 100 | 1006.1 |
| 20260506042606 | 13 | 228 | 0.0 | 8.0 | 0.18 | 0.89 | 0.00 | 100 | 1006.0 |
| 20260506042106 | 14 | 234 | 1.6 | 8.0 | 0.23 | 0.89 | 0.00 | 100 | 1005.9 |
| 20260506041606 | 14 | 200 | 0.0 | 11.3 | 0.23 | 0.86 | 0.00 | 100 | 1006.0 |
| 20260506041109 | 14 | 221 | 0.0 | 8.0 | 0.23 | 0.86 | 0.00 | 100 | 1006.1 |
| 20260506040605 | 14 | 190 | 0.0 | 11.3 | 0.25 | 0.86 | 0.00 | 100 | 1006.1 |
| 20260506040105 | 14 | 259 | 11.3 | 17.7 | 0.28 | 0.86 | 0.00 | 100 | 1006.3 |
| 20260506035606 | 14 | 250 | 0.0 | 6.4 | 0.25 | 0.84 | 0.00 | 100 | 1006.5 |
| 20260506035106 | 14 | 222 | 6.4 | 9.7 | 0.28 | 0.84 | 0.00 | 100 | 1006.6 |
| 20260506034606 | 14 | 229 | 3.2 | 9.7 | 0.25 | 0.81 | 0.00 | 100 | 1006.7 |
| 20260506034106 | 14 | 230 | 4.8 | 6.4 | 0.23 | 0.76 | 0.00 | 100 | 1006.8 |
| 20260506033606 | 14 | 231 | 0.0 | 11.3 | 0.25 | 0.76 | 0.00 | 100 | 1006.9 |
| 20260506033105 | 14 | 221 | 0.0 | 8.0 | 0.23 | 0.71 | 0.00 | 100 | 1006.9 |
| 20260506032606 | 14 | 226 | 4.8 | 20.9 | 0.25 | 0.69 | 0.00 | 100 | 1007.0 |
| 20260506032106 | 14 | 240 | 4.8 | 9.7 | 0.23 | 0.66 | 0.00 | 100 | 1007.0 |
| 20260506031606 | 14 | 242 | 3.2 | 12.9 | 0.20 | 0.61 | 0.00 | 100 | 1007.0 |
| 20260506031106 | 14 | 250 | 0.0 | 9.7 | 0.23 | 0.61 | 0.00 | 100 | 1007.0 |
| 20260506030605 | 14 | 234 | 0.0 | 11.3 | 0.25 | 0.58 | 0.00 | 100 | 1007.0 |
| 20260506030108 | 14 | 240 | 3.2 | 8.0 | 0.23 | 0.56 | 0.00 | 100 | 1007.1 |
| 20260506025609 | 14 | 246 | 0.0 | 6.4 | 0.25 | 0.56 | 0.00 | 100 | 1007.0 |
| 20260506025105 | 14 | 246 | 0.0 | 11.3 | 0.25 | 0.53 | 0.00 | 100 | 1007.1 |
| 20260506024605 | 14 | 231 | 4.8 | 9.7 | 0.28 | 0.53 | 0.00 | 100 | 1007.2 |
| 20260506024105 | 14 | 230 | 4.8 | 16.1 | 0.28 | 0.51 | 0.00 | 100 | 1007.2 |
| 20260506023606 | 14 | 232 | 6.4 | 8.0 | 0.25 | 0.48 | 0.00 | 100 | 1007.3 |
| 20260506023105 | 14 | 230 | 6.4 | 6.4 | 0.23 | 0.46 | 0.00 | 100 | 1007.3 |
| 20260506022606 | 14 | 231 | 0.0 | 9.7 | 0.20 | 0.41 | 0.00 | 100 | 1007.5 |
| 20260506022105 | 14 | 239 | 0.0 | 9.7 | 0.20 | 0.41 | 0.00 | 100 | 1007.5 |
| 20260506021606 | 14 | 207 | 3.2 | 9.7 | 0.18 | 0.36 | 0.00 | 100 | 1007.4 |
| 20260506021105 | 15 | 207 | 6.4 | 9.7 | 0.15 | 0.33 | 0.00 | 100 | 1007.2 |
| 20260506020610 | 15 | 204 | 1.6 | 14.5 | 0.10 | 0.28 | 0.00 | 100 | 1007.4 |
| 20260506020106 | 15 | 229 | 0.0 | 11.3 | 0.13 | 0.28 | 0.00 | 100 | 1007.4 |
| 20260506015605 | 15 | 229 | 11.3 | 11.3 | 0.10 | 0.25 | 0.00 | 100 | 1007.5 |
| 20260506015106 | 15 | 242 | 3.2 | 11.3 | 0.10 | 0.23 | 0.00 | 100 | 1007.4 |
| 20260506014606 | 15 | 223 | 1.6 | 9.7 | 0.08 | 0.20 | 0.00 | 100 | 1007.3 |
| 20260506014106 | 15 | 223 | 4.8 | 8.0 | 0.08 | 0.18 | 0.00 | 100 | 1007.2 |
| 20260506013605 | 15 | 223 | 0.0 | 6.4 | 0.08 | 0.18 | 0.00 | 100 | 1007.1 |
| 20260506013106 | 15 | 223 | 4.8 | 6.4 | 0.08 | 0.18 | 0.00 | 100 | 1007.0 |
| 20260506012605 | 15 | 222 | 0.0 | 6.4 | 0.05 | 0.15 | 0.00 | 100 | 1006.9 |
| 20260506012108 | 15 | 170 | 0.0 | 12.9 | 0.05 | 0.15 | 0.00 | 100 | 1007.0 |
| 20260506011606 | 15 | 211 | 0.0 | 8.0 | 0.05 | 0.15 | 0.00 | 100 | 1007.0 |
| 20260506011106 | 15 | 234 | 3.2 | 9.7 | 0.05 | 0.15 | 0.00 | 100 | 1006.9 |
| 20260506010605 | 15 | 235 | 0.0 | 4.8 | 0.05 | 0.15 | 0.00 | 100 | 1007.1 |
| 20260506010106 | 15 | 234 | 0.0 | 8.0 | 0.03 | 0.13 | 0.00 | 100 | 1007.3 |
| 20260506005605 | 15 | 239 | 3.2 | 11.3 | 0.03 | 0.13 | 0.00 | 100 | 1007.3 |
| 20260506005109 | 15 | 244 | 0.0 | 20.9 | 0.03 | 0.13 | 0.00 | 100 | 1007.3 |
| 20260506004605 | 15 | 242 | 0.0 | 16.1 | 0.03 | 0.13 | 0.00 | 100 | 1007.4 |
| 20260506004106 | 15 | 242 | 0.0 | 12.9 | 0.00 | 0.10 | 0.00 | 100 | 1007.5 |
| 20260506003605 | 15 | 234 | 0.0 | 11.3 | 0.00 | 0.10 | 0.00 | 100 | 1007.4 |
| 20260506003109 | 15 | 239 | 0.0 | 11.3 | 0.00 | 0.10 | 0.00 | 100 | 1007.3 |
| 20260506002606 | 15 | 253 | 1.6 | 11.3 | 0.00 | 0.10 | 0.00 | 100 | 1007.3 |
| 20260506002105 | 15 | 263 | 0.0 | 8.0 | 0.00 | 0.10 | 0.00 | 100 | 1007.2 |
| 20260506001605 | 15 | 264 | 3.2 | 11.3 | 0.00 | 0.10 | 0.00 | 100 | 1007.3 |
| 20260506001105 | 15 | 223 | 0.0 | 16.1 | 0.00 | 0.10 | 0.00 | 99 | 1007.3 |
| 20260506000605 | 15 | 235 | 3.2 | 8.0 | 0.00 | 0.10 | 0.00 | 99 | 1007.2 |
| 20260506000106 | 15 | 235 | 3.2 | 4.8 | 0.03 | 0.10 | 0.00 | 99 | 1007.2 |
| 20260505235605 | 15 | 235 | 3.2 | 6.4 | 0.03 | 0.10 | 0.00 | 99 | 1007.2 |
| 20260505235106 | 15 | 235 | 0.0 | 8.0 | 0.03 | 0.10 | 0.00 | 99 | 1007.2 |
| 20260505234609 | 15 | 235 | 4.8 | 12.9 | 0.05 | 0.10 | 0.00 | 99 | 1007.4 |
| 20260505234109 | 15 | 233 | 1.6 | 11.3 | 0.05 | 0.10 | 0.00 | 99 | 1007.4 |
| 20260505233606 | 15 | 240 | 0.0 | 9.7 | 0.08 | 0.10 | 0.00 | 99 | 1007.5 |
| 20260505233108 | 15 | 234 | 4.8 | 8.0 | 0.08 | 0.10 | 0.00 | 98 | 1007.5 |
| 20260505232605 | 15 | 234 | 1.6 | 8.0 | 0.10 | 0.10 | 0.00 | 98 | 1007.6 |
| 20260505232105 | 15 | 243 | 1.6 | 16.1 | 0.10 | 0.10 | 0.00 | 98 | 1007.6 |
| 20260505231609 | 15 | 244 | 3.2 | 16.1 | 0.10 | 0.10 | 0.00 | 98 | 1007.8 |
| 20260505231106 | 15 | 245 | 6.4 | 12.9 | 0.10 | 0.10 | 0.00 | 98 | 1007.8 |
| 20260505230609 | 15 | 229 | 4.8 | 16.1 | 0.10 | 0.10 | 0.00 | 97 | 1007.7 |
| 20260505230106 | 15 | 220 | 8.0 | 16.1 | 0.10 | 0.10 | 0.00 | 97 | 1007.8 |
| 20260505225606 | 15 | 245 | 0.0 | 11.3 | 0.10 | 0.10 | 0.00 | 97 | 1007.7 |
| 20260505225106 | 15 | 226 | 6.4 | 19.3 | 0.10 | 0.10 | 0.00 | 96 | 1007.7 |
| 20260505224606 | 15 | 249 | 11.3 | 22.5 | 0.08 | 0.08 | 0.00 | 96 | 1007.8 |
| 20260505224106 | 15 | 305 | 8.0 | 20.9 | 0.08 | 0.08 | 0.00 | 94 | 1007.8 |
| 20260505223606 | 15 | 246 | 6.4 | 20.9 | 0.05 | 0.05 | 0.00 | 93 | 1007.8 |
| 20260505223106 | 15 | 265 | 6.4 | 16.1 | 0.05 | 0.05 | 0.00 | 91 | 1007.6 |
| 20260505222605 | 15 | 265 | 14.5 | 22.5 | 0.03 | 0.03 | 0.00 | 89 | 1007.6 |
| 20260505222106 | 16 | 260 | 19.3 | 20.9 | 0.00 | 0.00 | 0.00 | 86 | 1007.5 |
| 20260505221608 | 16 | 259 | 6.4 | 29.0 | 0.00 | 0.00 | 0.00 | 79 | 1007.4 |
| 20260505221106 | 18 | 232 | 16.1 | 33.8 | 0.00 | 0.00 | 0.00 | 73 | 1007.3 |
| 20260505220605 | 20 | 270 | 11.3 | 24.1 | 0.00 | 0.00 | 0.00 | 58 | 1007.0 |
| 20260505220106 | 20 | 205 | 8.0 | 22.5 | 0.00 | 0.00 | 0.00 | 57 | 1006.6 |
| 20260505215606 | 20 | 182 | 4.8 | 22.5 | 0.00 | 0.00 | 0.00 | 55 | 1006.4 |